Simultaneous Nadir Overpasses (SNOs) Predictions

Prediction of SNOs between GOES-16 and NOAA-19 Satellite Orbit:

Table of predicted SNOs for the next 14.0 days since TLE Epoch: 8/26/2022
Index Date Time (GOES-16) GOES-16 Lat,Lon NOAA-19 Lat,Lon Distance(km) Time Diff (sec)
1 08/27/2022 00:56:49 0.02, -75.20 0.20, -74.51 78.59 80
2 08/28/2022 00:44:56 0.02, -75.20 0.86, -71.62 409.52 80
3 08/29/2022 13:14:38 -0.03, -75.22 0.92, -79.37 472.71 80
4 08/30/2022 13:02:45 -0.03, -75.23 0.28, -76.47 141.50 80
5 08/31/2022 12:53:34 -0.02, -75.24 -0.42, -73.58 189.84 80
6 09/03/2022 01:11:28 0.02, -75.25 -0.69, -78.46 365.25 80
7 09/04/2022 00:59:35 0.02, -75.26 -0.03, -75.56 33.83 80
8 09/05/2022 00:50:23 0.02, -75.27 0.63, -72.66 297.71 80
9 09/07/2022 13:10:53 -0.01, -75.31 0.53, -77.51 252.75 80
10 09/08/2022 12:56:21 -0.01, -75.32 -0.18, -74.63 79.25 80
11 09/09/2022 12:44:29 -0.01, -75.34 -0.83, -71.73 411.45 80
